Wind_Speed
6 7 8 9 10 10 10 11 12 13 13 14 14 15 17 17 16 16 16 17 17 16 16 16 16 16 15 14 14 12 12 11 10 9 9 8 7 6 5 5 5 4 4 4
6 7 8 9 10 10 11 11 12 13 13 12 13 14 15 16 16 16 16 16 16 17 17 17 17 17 16 15 14 13 12 11 10 10 9 8 7 6 6 5 4 4 4 5
6 7 8 8 9 9 10 11 12 12 12 13 13 13 14 15 16 16 16 16 17 17 17 17 17 17 16 15 15 14 13 12 11 10 9 9 7 7 6 5 4 4 4 4
7 7 7 7 8 9 10 10 11 12 12 13 13 13 14 14 15 17 17 17 17 17 17 18 18 18 17 16 16 15 14 13 11 11 10 9 8 7 7 6 5 4 3 3
6 6 7 7 8 8 10 10 10 10 11 12 13 12 13 14 15 16 16 17 18 18 18 18 18 18 17 17 16 15 14 14 12 11 10 9 9 7 7 6 5 4 4 3
7 6 7 7 8 8 9 9 10 10 10 11 12 12 12 13 14 15 15 16 17 18 18 18 18 18 18 17 16 15 14 14 13 12 11 10 9 8 8 7 6 5 5 4
6 6 7 7 7 8 9 9 9 10 10 11 11 12 13 13 13 14 14 15 17 18 18 18 18 18 18 17 16 16 14 14 14 13 12 11 10 9 9 8 7 6 6 5
6 6 7 7 8 9 10 10 10 9 10 10 11 12 13 13 13 13 14 15 15 17 17 17 18 18 18 18 17 16 15 14 14 14 12 12 10 10 9 8 7 7 6 5
7 7 7 8 8 9 10 10 10 11 10 9 10 10 11 12 12 12 13 14 15 15 16 16 17 17 17 17 17 16 16 15 15 15 14 12 11 11 10 9 8 7 7 6
7 8 7 8 8 9 9 9 11 10 10 9 9 9 11 12 13 13 13 14 15 15 15 16 17 17 17 17 17 17 17 16 15 15 14 13 12 12 12 10 9 9 8 7
8 8 8 8 8 8 9 9 9 10 10 10 9 10 11 12 13 14 14 14 14 14 14 14 15 17 18 18 17 18 17 16 16 15 15 14 13 13 12 11 9 9 9 9
8 9 9 9 9 9 9 10 10 10 10 10 10 10 11 12 13 13 13 13 14 14 14 14 15 16 17 18 17 17 17 16 16 16 16 15 14 13 13 12 11 10 10 10
10 9 8 9 10 10 10 10 11 11 12 11 11 11 12 12 12 13 13 13 14 15 14 15 15 16 17 18 18 17 17 17 17 16 16 16 15 15 14 13 12 12 11 10
11 10 10 10 10 10 10 10 11 11 11 11 11 11 12 13 13 13 13 13 14 15 15 15 15 16 17 17 18 17 18 17 17 16 16 16 16 15 15 14 14 13 12 11
12 11 10 11 10 10 10 10 10 11 11 11 11 12 12 13 13 13 13 14 14 14 14 15 15 15 17 17 17 18 18 18 17 16 16 16 16 16 16 16 15 13 13 13
13 12 12 12 11 11 11 11 12 12 12 12 12 13 14 14 14 13 13 14 14 14 14 15 15 15 16 16 17 17 18 18 17 16 16 16 16 16 16 16 15 15 15 14
13 13 12 12 13 12 12 12 12 12 12 12 12 12 14 13 13 14 14 15 15 14 14 15 16 16 16 16 17 17 18 18 17 17 16 17 17 16 16 16 16 16 15 15
15 14 14 14 13 13 12 12 12 12 12 12 13 13 14 14 14 14 15 15 15 15 14 14 16 17 16 17 18 18 18 18 18 18 18 17 17 17 17 17 17 16 16 16
16 16 15 14 14 14 13 12 12 12 12 13 13 14 14 14 14 15 15 15 15 15 15 15 15 16 16 16 17 18 18 18 18 18 17 18 17 17 18 18 18 18 18 17
17 17 16 16 15 14 14 13 13 13 12 13 14 14 14 14 14 14 15 15 16 16 16 16 16 17 17 17 17 17 17 18 18 18 17 18 18 18 18 19 19 19 18 18
18 18 18 17 17 15 15 14 13 14 13 14 14 14 14 14 15 15 15 15 16 16 17 17 17 17 17 18 17 17 17 17 17 18 18 18 18 19 19 19 19 19 19 19
19 19 19 18 17 16 15 15 15 15 15 14 14 15 15 15 15 15 14 15 16 16 17 16 17 17 18 18 18 17 17 17 18 18 19 19 18 18 18 18 18 19 20 20
19 19 19 18 17 17 16 15 15 16 15 15 15 15 15 15 15 15 15 15 15 16 17 16 17 17 18 18 18 18 18 17 18 18 18 19 19 19 19 19 20 20 21 22
20 20 19 19 18 17 17 16 16 16 16 15 15 15 15 15 15 16 15 15 15 15 17 17 17 17 17 18 18 18 18 18 18 19 19 20 21 21 21 21 22 22 22 22
19 20 20 20 19 19 18 17 17 17 16 16 16 15 16 16 16 16 15 15 15 16 16 17 18 18 18 19 19 19 19 19 19 20 20 21 22 23 23 23 23 24 24 25
21 21 21 21 20 20 19 19 18 18 18 17 16 16 16 17 16 16 16 15 16 16 17 18 19 18 19 19 20 20 21 20 21 21 22 23 23 24 25 25 26 26 26 26
Wind_Direction
267 258 251 243 237 232 227 226 224 219 216 217 217 216 217 220 219 218 218 216 215 213 211 211 210 207 205 204 206 211 210 211 214 217 223 230 235 246 257 270 279 294 305 310
267 259 252 246 239 231 226 225 223 221 220 219 215 217 221 218 220 218 215 215 215 212 211 210 209 210 209 208 210 214 212 211 211 217 227 232 234 245 257 270 280 293 300 302
263 255 250 243 234 228 224 223 224 225 223 223 219 220 222 218 219 217 217 218 215 213 210 210 210 211 212 212 215 216 213 211 215 221 228 232 239 245 252 262 274 285 292 298
259 250 244 237 229 226 227 223 221 223 223 223 221 224 221 221 219 219 220 219 216 216 213 212 210 212 215 216 217 217 214 214 219 223 228 231 239 247 251 257 268 270 278 285
253 240 238 232 227 224 223 220 216 220 221 223 225 225 222 222 220 219 221 220 219 217 214 213 214 214 216 217 219 217 218 219 221 225 229 233 240 245 251 257 261 258 261 266
245 236 231 227 223 221 222 218 216 217 220 223 222 221 222 223 220 220 221 221 220 217 216 219 217 217 218 218 221 222 224 224 225 227 230 235 240 242 245 250 252 248 251 255
242 232 223 220 219 217 216 217 218 221 224 225 222 222 223 223 220 220 223 222 220 217 217 219 219 218 219 221 223 222 228 230 229 228 230 235 239 240 242 245 245 245 247 254
238 229 226 223 223 219 217 218 219 221 225 228 225 226 223 222 223 224 223 221 218 216 217 220 221 223 225 227 226 223 229 232 232 231 233 234 238 240 242 241 242 244 247 253
233 229 222 224 222 218 215 220 222 226 226 225 223 221 221 220 223 226 224 217 216 218 221 223 224 225 226 228 228 226 228 229 231 231 233 234 237 238 240 244 242 244 248 250
228 229 224 223 221 221 220 222 223 224 223 222 218 219 219 220 224 225 221 218 219 221 223 224 225 225 225 226 228 227 228 232 233 233 232 234 238 237 237 242 243 244 248 249
226 226 230 223 218 221 221 222 222 221 220 221 219 219 220 224 226 226 224 221 221 222 223 223 227 229 230 228 228 230 231 231 232 234 232 234 237 238 239 243 247 250 251 248
227 225 228 229 225 224 225 225 227 226 226 225 227 225 226 229 228 230 229 227 226 225 226 229 233 233 231 229 228 229 229 231 230 233 233 235 236 237 239 240 247 251 251 246
224 222 225 231 231 230 230 228 228 229 230 230 232 234 232 232 231 230 231 230 229 230 232 234 234 234 231 230 230 228 230 230 230 233 236 235 235 237 238 242 244 248 251 249
222 223 224 230 237 236 232 233 228 226 228 230 233 234 235 234 235 234 233 233 234 234 234 236 236 235 231 230 228 229 230 229 231 234 237 235 235 236 239 243 244 244 247 251
225 222 225 229 234 235 234 235 233 233 233 233 232 236 239 239 238 235 234 234 235 235 234 234 235 236 231 228 229 230 230 231 232 235 238 238 237 237 239 243 242 244 247 251
227 227 231 234 234 234 237 237 238 239 238 237 238 237 240 239 237 234 234 235 236 236 234 234 234 233 229 229 229 229 229 231 233 236 239 239 240 239 239 242 241 245 248 251
231 231 232 236 237 237 238 239 240 243 241 238 237 237 238 240 237 235 236 236 237 235 233 233 233 231 231 229 229 228 228 231 233 237 239 239 240 242 241 243 245 248 251 255
233 235 236 236 236 237 241 242 243 241 238 239 239 239 242 242 241 239 238 238 238 238 238 238 234 232 233 233 230 229 230 232 237 240 241 242 242 243 243 243 246 251 255 259
233 233 235 236 237 241 244 244 243 243 241 242 241 244 247 246 243 240 240 242 241 241 240 239 236 234 234 235 234 232 231 234 237 239 240 242 244 246 247 246 249 253 258 259
233 232 234 237 240 242 245 245 246 245 243 243 244 245 246 247 246 244 245 245 240 239 239 240 239 235 234 235 236 235 234 235 237 239 241 243 246 248 250 251 251 255 258 261
232 233 236 238 241 244 245 246 246 243 244 245 246 247 247 247 245 244 244 243 241 239 239 239 238 234 233 234 235 236 237 236 238 241 242 246 250 251 252 254 254 256 260 262
234 235 237 239 242 244 247 246 246 244 244 246 247 249 250 247 246 247 245 244 242 240 238 238 237 233 232 233 235 235 236 237 239 242 244 249 253 254 256 257 258 260 263 265
233 236 239 241 244 246 247 248 246 245 245 247 249 250 250 250 248 248 247 246 243 241 239 240 237 233 235 237 238 236 238 240 243 246 250 251 253 255 258 260 263 265 266 267
236 236 238 239 242 245 246 246 246 246 246 249 251 251 250 249 248 247 248 246 244 242 240 240 236 234 236 238 238 239 242 245 248 250 251 252 255 258 261 263 267 268 268 270
234 234 236 238 240 244 245 244 244 245 246 247 250 250 250 248 248 248 248 248 246 243 241 238 235 238 237 237 241 243 246 249 252 253 254 256 257 260 263 265 267 269 268 270
233 234 236 238 240 242 242 244 246 247 245 246 247 248 251 251 248 249 250 248 248 247 242 239 239 239 240 241 243 246 249 252 256 258 259 260 261 262 265 267 268 268 269 269
Height
5832 5834 5834 5835 5836 5837 5838 5839 5841 5843 5844 5846 5848 5850 5851 5853 5855 5857 5859 5862 5864 5866 5868 5870 5872 5875 5877 5879 5881 5883 5884 5886 5887 5888 5889 5890 5890 5891 5890 5890 5889 5889 5888 5887
5831 5831 5832 5832 5833 5835 5836 5838 5839 5841 5842 5845 5846 5848 5849 5850 5852 5855 5857 5859 5861 5863 5866 5868 5871 5873 5875 5878 5880 5881 5883 5884 5886 5887 5888 5888 5889 5889 5889 5889 5888 5887 5887 5886
5829 5830 5830 5830 5831 5832 5834 5836 5837 5839 5841 5842 5845 5846 5847 5848 5850 5852 5855 5857 5859 5861 5864 5866 5869 5871 5874 5876 5878 5880 5881 5883 5884 5885 5886 5887 5887 5888 5888 5888 5887 5886 5885 5885
5827 5827 5828 5828 5829 5831 5832 5833 5835 5837 5839 5841 5843 5844 5846 5846 5848 5850 5853 5855 5857 5859 5862 5864 5867 5870 5872 5874 5876 5878 5879 5881 5882 5884 5885 5885 5886 5886 5886 5886 5885 5885 5884 5884
5825 5825 5826 5827 5828 5829 5830 5832 5833 5835 5837 5839 5841 5842 5844 5844 5846 5848 5850 5852 5855 5857 5860 5862 5865 5868 5870 5872 5874 5876 5877 5879 5880 5882 5883 5884 5884 5884 5884 5884 5884 5883 5883 5883
5823 5824 5824 5825 5826 5827 5829 5830 5832 5833 5835 5838 5839 5840 5842 5842 5844 5846 5847 5850 5852 5855 5857 5860 5863 5865 5868 5870 5872 5874 5875 5877 5878 5880 5881 5882 5882 5883 5883 5882 5882 5882 5882 5882
5821 5822 5823 5824 5824 5826 5827 5830 5831 5833 5834 5836 5837 5838 5840 5841 5842 5844 5846 5848 5850 5853 5855 5858 5860 5863 5865 5868 5869 5872 5873 5875 5876 5877 5879 5880 5880 5881 5881 5881 5881 5881 5881 5880
5820 5821 5821 5822 5823 5824 5826 5828 5831 5832 5833 5834 5835 5836 5838 5839 5840 5842 5844 5845 5847 5850 5853 5855 5858 5860 5862 5865 5867 5869 5871 5872 5873 5875 5876 5877 5878 5879 5879 5879 5879 5879 5879 5879
5818 5819 5820 5821 5821 5823 5824 5825 5828 5829 5830 5832 5833 5834 5836 5837 5838 5840 5841 5843 5845 5847 5850 5852 5855 5857 5859 5862 5864 5866 5868 5870 5871 5872 5874 5875 5876 5876 5877 5877 5877 5877 5878 5878
5816 5818 5818 5819 5820 5821 5823 5824 5825 5827 5828 5830 5832 5833 5834 5834 5836 5837 5839 5840 5842 5845 5847 5849 5852 5854 5856 5859 5861 5863 5865 5867 5868 5870 5871 5872 5873 5874 5874 5875 5875 5876 5876 5876
5814 5816 5817 5817 5818 5819 5821 5822 5823 5825 5826 5828 5830 5833 5831 5832 5833 5835 5836 5838 5840 5842 5844 5847 5849 5851 5853 5856 5858 5860 5862 5864 5865 5867 5869 5870 5871 5871 5872 5873 5873 5874 5874 5874
5812 5814 5815 5816 5817 5817 5818 5820 5821 5823 5824 5826 5827 5832 5828 5829 5831 5832 5834 5835 5837 5840 5842 5844 5846 5848 5850 5852 5854 5856 5859 5860 5862 5864 5866 5867 5868 5869 5870 5871 5871 5872 5872 5872
5810 5812 5813 5814 5816 5816 5816 5817 5818 5820 5821 5823 5825 5829 5826 5827 5828 5829 5831 5833 5835 5837 5839 5841 5842 5844 5846 5848 5850 5853 5855 5857 5859 5861 5862 5864 5865 5866 5867 5868 5869 5869 5870 5870
5807 5809 5811 5813 5812 5813 5814 5815 5816 5817 5819 5820 5822 5823 5823 5824 5825 5826 5828 5830 5831 5833 5835 5837 5839 5840 5842 5844 5847 5849 5852 5854 5856 5858 5859 5860 5862 5863 5864 5865 5866 5866 5867 5867
5804 5806 5807 5808 5809 5810 5811 5812 5813 5814 5816 5818 5819 5820 5821 5821 5822 5823 5825 5826 5828 5830 5831 5833 5835 5837 5838 5841 5843 5846 5848 5850 5852 5854 5856 5857 5858 5860 5861 5862 5862 5863 5864 5864
5801 5803 5804 5805 5806 5807 5808 5809 5810 5811 5812 5814 5815 5817 5817 5817 5819 5820 5821 5823 5825 5826 5828 5829 5831 5833 5835 5837 5840 5842 5845 5847 5849 5850 5852 5853 5855 5856 5857 5858 5859 5860 5861 5861
5797 5800 5801 5802 5803 5804 5806 5807 5807 5808 5809 5810 5812 5813 5813 5814 5815 5817 5818 5819 5821 5822 5824 5825 5827 5829 5831 5834 5836 5839 5841 5843 5845 5847 5848 5850 5851 5852 5853 5854 5856 5856 5857 5857
5794 5796 5797 5799 5801 5801 5805 5803 5804 5805 5806 5807 5808 5809 5810 5811 5812 5813 5814 5816 5817 5818 5820 5822 5823 5826 5828 5830 5833 5835 5837 5839 5841 5843 5844 5846 5847 5848 5849 5850 5851 5852 5853 5853
5790 5792 5793 5795 5796 5798 5800 5800 5800 5801 5802 5803 5804 5805 5806 5807 5808 5809 5810 5812 5813 5815 5816 5818 5819 5822 5824 5827 5829 5831 5833 5835 5837 5839 5840 5842 5843 5844 5845 5846 5847 5848 5849 5849
5785 5787 5790 5791 5793 5794 5797 5796 5797 5799 5799 5800 5800 5801 5802 5803 5805 5806 5807 5807 5809 5810 5812 5814 5816 5818 5820 5823 5825 5827 5829 5831 5833 5835 5836 5837 5839 5840 5841 5841 5842 5844 5844 5844
5781 5783 5785 5787 5788 5790 5792 5792 5794 5796 5797 5796 5797 5798 5799 5799 5801 5802 5802 5803 5805 5806 5808 5810 5811 5814 5816 5819 5821 5823 5825 5827 5829 5830 5832 5833 5834 5835 5836 5837 5838 5839 5839 5839
5776 5778 5780 5782 5784 5788 5787 5788 5790 5791 5791 5792 5793 5794 5795 5795 5796 5797 5798 5799 5800 5802 5804 5805 5807 5809 5812 5814 5817 5819 5821 5823 5824 5826 5827 5828 5829 5830 5831 5832 5833 5833 5834 5834
5771 5774 5776 5778 5781 5782 5783 5784 5785 5786 5787 5788 5789 5790 5791 5792 5792 5793 5794 5795 5796 5798 5799 5801 5803 5805 5808 5810 5812 5815 5816 5818 5820 5821 5822 5823 5824 5825 5826 5827 5827 5828 5828 5828
5766 5768 5770 5772 5774 5776 5778 5779 5781 5782 5783 5784 5785 5786 5787 5788 5788 5789 5790 5791 5792 5793 5795 5796 5799 5801 5803 5805 5808 5810 5812 5813 5815 5816 5817 5818 5819 5820 5820 5821 5821 5821 5822 5821
5761 5763 5765 5767 5769 5771 5773 5775 5776 5777 5778 5779 5780 5781 5782 5784 5784 5785 5786 5787 5788 5789 5790 5792 5794 5796 5799 5801 5803 5805 5807 5808 5809 5811 5811 5812 5813 5814 5814 5815 5815 5815 5815 5815
5755 5757 5759 5762 5764 5766 5768 5769 5771 5772 5773 5775 5776 5777 5778 5779 5780 5781 5782 5783 5784 5785 5786 5788 5790 5792 5794 5796 5798 5800 5801 5802 5804 5805 5805 5806 5807 5807 5807 5807 5807 5807 5807 5807